sat.trackr.live / text

‹ back to catalog

CAS500-2 RIDESHARE OBJE*

NORAD 69014 · 2026-100AL

PAYLOAD ACTIVE UNKNOWN

§ Identity

Operator
Country
TBD
Launch date
2026-05-03
Launch site
AFWTR
Launch vehicle
Mass (kg)
RCS (m²)

External: N2YO · Heavens-Above · Gunter

§ Orbital elements

Epoch: 2026-05-24T23:29:46.806144Z

Period
94.68 min
Inclination
97.4089°
Eccentricity
0.0007422
Mean motion
15.20955356 rev/d
Perigee alt
497.9 km
Apogee alt
508.1 km
Semi-major
6,881.1 km
B*
1.5419e-4
RAAN
43.2532°
Arg perigee
127.6500°
Mean anomaly
232.5410°
Rev number
328

§ Raw data

CAS500-2 RIDESHARE OBJE*1 69014U 26100AL  26144.97901396  .00003347  00000+0  15419-3 0  99992 69014  97.4089  43.2532 0007422 127.6500 232.5410 15.20955356  3285

JSON: /api/v1/satellites/69014 · /tle

For live sub-satellite position, see the globe view (requires WebGL).

§ Visibility from observer

Set your observer location to see the next 7 days of passes ≥ 10°. The values pass through the URL so the page stays shareable.

No JS? Fill the form by hand. The geolocation button needs JavaScript.